Hibbing, MN

8:49 AM CDT on March 27, 2017 (GMT -0500)
Chisholm-hibbing

Weather History for KHIB - May, 2014

Change the Weather History Date:

Monday, May 5, 2014

  Actual Average Record
Temperature  
Mean Temperature 44 °F -  
Max Temperature 51 °F 60 °F 84 °F (2000)
Min Temperature 36 °F 34 °F 18 °F (1967)
Degree Days  
Heating Degree Days 21    
Moisture  
Dew Point 35 °F    
Average Humidity 76    
Maximum Humidity 93    
Minimum Humidity 58    
Precipitation  
Precipitation 0.02 in - - ()
Sea Level Pressure  
Sea Level Pressure 30.06 in    
Wind  
Wind Speed 5 mph (East)    
Max Wind Speed 7 mph    
Max Gust Speed -    
Visibility 10 miles    
Events Rain    
Averages and records for this station are not official NWS values.
T = Trace of Precipitation, MM = Missing Value Source: NWS Daily Summary

Daily Weather History Graph

Daily Weather History Graph

Search for Another Location

Airport or City:

Trip Planner

Search our weather history database for the weather conditions in past years. The results will help you decide how hot, cold, wet, or windy it might be!

Date:

Astronomy

May. 05, 2014 Rise Set
Actual Time 5:48 AM CDT 8:28 PM CDT
Civil Twilight 5:13 AM CDT 9:03 PM CDT
Nautical Twilight 4:29 AM CDT 9:47 PM CDT
Astronomical Twilight 3:38 AM CDT 10:39 PM CDT
Moon 11:10 AM CDT (5/5) 1:12 AM CDT (5/5)
Length of Visible Light 15h 49m
Length of Day
14h 39m
Waxing Crescent, 37% of the Moon is Illuminated
May 5
Waxing Crescent
May 6
First Quarter
May 14
Full
May 21
Last Quarter
May 28
New

Hourly Weather History & Observations

Time (CDT) Temp. Windchill Dew Point Humidity Pressure Visibility Wind Dir Wind Speed Gust Speed Precip Events Conditions
12:53 AM 42.1 °F 38.4 °F 28.0 °F 58% 30.11 in 10.0 mi ESE 5.8 mph - 0.00 in Rain Light Rain
1:53 AM 39.9 °F 35.8 °F 32.0 °F 73% 30.09 in 10.0 mi ESE 5.8 mph - 0.00 in   Overcast
2:53 AM 39.0 °F 34.8 °F 32.0 °F 76% 30.09 in 10.0 mi SE 5.8 mph - 0.00 in Rain Light Rain
3:53 AM 37.9 °F 35.5 °F 34.0 °F 86% 30.10 in 10.0 mi East 3.5 mph - 0.01 in Rain Light Rain
4:06 AM 37.9 °F 35.5 °F 35.1 °F 89% 30.06 in 10.0 mi East 3.5 mph - 0.00 in Rain Light Rain
4:53 AM 37.9 °F 33.5 °F 35.1 °F 89% 30.10 in 10.0 mi East 5.8 mph - 0.00 in Rain Light Rain
5:53 AM 37.9 °F 35.5 °F 35.1 °F 89% 30.09 in 10.0 mi East 3.5 mph - 0.00 in Rain Light Rain
6:12 AM 37.9 °F 34.4 °F 35.1 °F 89% 30.06 in 10.0 mi ESE 4.6 mph - 0.01 in Rain Light Rain
6:48 AM 37.4 °F 33.8 °F 35.6 °F 93% 30.06 in 10.0 mi East 4.6 mph - 0.01 in Rain Light Rain
6:53 AM 37.9 °F 33.5 °F 34.0 °F 86% 30.09 in 10.0 mi ESE 5.8 mph - 0.01 in Rain Light Rain
7:23 AM 37.0 °F 31.6 °F 34.0 °F 89% 30.06 in 10.0 mi ESE 6.9 mph - 0.00 in Rain Light Rain
7:53 AM 37.0 °F 32.4 °F 35.1 °F 93% 30.10 in 10.0 mi ESE 5.8 mph - 0.00 in Rain Light Rain
8:10 AM 37.0 °F 33.3 °F 35.1 °F 93% 30.06 in 10.0 mi East 4.6 mph - 0.00 in   Overcast
8:53 AM 37.9 °F 32.7 °F 35.1 °F 89% 30.11 in 10.0 mi SE 6.9 mph - 0.00 in   Overcast
9:53 AM 37.9 °F 33.5 °F 35.1 °F 89% 30.10 in 10.0 mi ESE 5.8 mph - N/A   Overcast
10:53 AM 39.0 °F 35.7 °F 36.0 °F 89% 30.11 in 10.0 mi SE 4.6 mph - N/A   Overcast
11:53 AM 39.9 °F 36.7 °F 36.0 °F 86% 30.11 in 10.0 mi SE 4.6 mph - N/A   Overcast
1:15 PM 44.1 °F 42.5 °F 37.0 °F 76% 30.05 in 10.0 mi Variable 3.5 mph - N/A   Overcast
1:53 PM 46.0 °F 44.8 °F 37.9 °F 73% 30.09 in 10.0 mi Variable 3.5 mph - N/A   Overcast
2:01 PM 46.0 °F - 37.0 °F 71% 30.04 in 10.0 mi Calm Calm - N/A   Overcast
2:11 PM 46.9 °F - 37.9 °F 71% 30.04 in 10.0 mi Variable 4.6 mph - N/A   Overcast
2:53 PM 50.0 °F - 37.9 °F 63% 30.06 in 10.0 mi North 4.6 mph - N/A   Overcast
3:53 PM 51.1 °F - 37.0 °F 59% 30.04 in 10.0 mi East 4.6 mph - N/A   Overcast
4:01 PM 51.1 °F - 37.0 °F 59% 30.00 in 10.0 mi Variable 4.6 mph - N/A   Overcast
4:37 PM 50.0 °F - 37.0 °F 61% 30.00 in 10.0 mi ESE 5.8 mph - N/A   Overcast
4:51 PM 50.0 °F - 37.4 °F 62% 30.00 in 10.0 mi NE 5.8 mph - N/A   Overcast
4:53 PM 50.0 °F - 37.0 °F 61% 30.04 in 10.0 mi NE 6.9 mph - N/A   Overcast
5:05 PM 50.0 °F - 37.0 °F 61% 30.00 in 10.0 mi NNE 6.9 mph - N/A   Overcast
5:53 PM 50.0 °F - 37.0 °F 61% 30.03 in 10.0 mi NE 5.8 mph - N/A   Overcast
6:53 PM 50.0 °F - 36.0 °F 59% 30.03 in 10.0 mi ENE 5.8 mph - N/A   Overcast
7:53 PM 48.0 °F - 36.0 °F 63% 30.03 in 10.0 mi NE 5.8 mph - N/A   Mostly Cloudy
8:53 PM 41.0 °F 39.0 °F 34.0 °F 76% 30.05 in 10.0 mi ENE 3.5 mph - N/A   Clear
11:53 PM 36.0 °F - 33.1 °F 89% 30.08 in 10.0 mi Calm Calm - N/A   Mostly Cloudy